[Iaude] MPEC J49: 2024 JU [a=1.94,e=0.41,i=0.9,H=25.7]
    mpec at cfa.harvard.edu 
    mpec at cfa.harvard.edu
       
    Fri May  3 13:14:49 EDT 2024
    
    
  
M.P.E.C. 2024-J49                                   Issued 2024 May 3, 17:13 UT
     The Minor Planet Electronic Circulars contain information on unusual
         minor planets, routine data on comets and natural satellites,
         and occasional editorial announcements.  They are published
    on behalf of Division F of the International Astronomical Union by the
          Minor Planet Center, Smithsonian Astrophysical Observatory,
                          Cambridge, MA 02138, U.S.A.
			  
             Prepared using the Tamkin Foundation Computer Network
                              MPC at CFA.HARVARD.EDU
            URL https://www.minorplanetcenter.net/    ISSN 1523-6714
                                    2024 JU                                     
Observations:
     K24J00U* C2024 05 01.41229114 08 04.473-14 16 40.29         21.76wXEJ049F52
     K24J00U  C2024 05 01.42358214 08 06.468-14 16 57.12         21.65wXEJ049F52
     K24J00U  C2024 05 01.44608314 08 10.468-14 17 31.02         22.04wXEJ049F52
     K24J00U  C2024 05 01.50607714 08 21.209-14 18 59.97         21.90GVEJ049F51
     K24J00U  C2024 05 01.50672114 08 21.326-14 19 01.04         22.36GVEJ049F51
     K24J00U KC2024 05 02.35260014 11 14.442-14 40 28.88         21.79GVEJ049V06
     K24J00U KC2024 05 02.36849114 11 17.336-14 40 51.82         22.00GVEJ049V06
     K24J00U KC2024 05 02.37084214 11 17.768-14 40 55.27         21.95GVEJ049V06
     K24J00U KC2024 05 02.37319514 11 18.186-14 40 58.80         21.83GVEJ049V06
     K24J00U !C2024 05 03.31477 14 14 31.52 -15 04 22.1          21.2 GVEJ049673
     K24J00U !C2024 05 03.32875 14 14 34.02 -15 04 42.7                VEJ049673
     K24J00U KC2024 05 03.35358 14 14 38.10 -15 05 16.5          22.1 RVEJ049291
     K24J00U KC2024 05 03.36211 14 14 39.65 -15 05 28.3                VEJ049291
     K24J00U KC2024 05 03.37151 14 14 41.34 -15 05 42.2                VEJ049291
Observer details:
291 LPL/Spacewatch II.  Observer T. H. Bressi.  1.8-m f/2.7 reflector + CCD.
673 Table Mountain Observatory, Wrightwood.  Observer J. Pittichova.  1.0-m
    f/15 reflector + CCD.
F51 Pan-STARRS 1, Haleakala.  Observers J. Herman, T. Lowe, P. Minguez, A.
    Schultz, I. Smith.  Measurers K. Chambers, T. de Boer, J. Fairlamb, H.
    Gao, M. Huber, C.-C. Lin, E. Magnier, Y. Ramanjooloo, R. Wainscoat, R.
    Weryk.  1.8-m Ritchey-Chretien + CCD.
F52 Pan-STARRS 2, Haleakala.  Observers J. Herman, T. Lowe, P. Minguez, A.
    Schultz, I. Smith.  Measurers K. Chambers, T. de Boer, J. Fairlamb, H.
    Gao, M. Huber, C.-C. Lin, E. Magnier, Y. Ramanjooloo, R. Wainscoat, R.
    Weryk.  1.8-m Ritchey-Chretien + CCD.
V06 Catalina Sky Survey-Kuiper.  Observers V. F. Carvajal, G. J. Leonard.
    Measurers T. Beuden, V. F. Carvajal, D. Fay, J. B. Fazekas, D. C. Fuls, A.
    R. Gibbs, A. D. Grauer, H. Groeller, J. K. Hogan, R. A. Kowalski, S. M.
    Larson, G. J. Leonard, D. Rankin, R. L. Seaman, F. C. Shelly, K. W.
    Wierzchos.  1.55-m reflector + 1K CCD.
Orbital elements:
2024 JU                                                  Earth MOID = 0.1308 AU
Epoch 2024 Mar. 31.0 TT = JDT 2460400.5                 Bell                    
M 351.62068              (2000.0)            P               Q                  
n   0.36421042     Peri.  181.28476     -0.84514318     +0.53448204             
a   1.9419340      Node    31.02810     -0.49029457     -0.76923891             
e   0.4147485      Incl.    0.87486     -0.21294184     -0.35014345             
P   2.71           H   25.72          G   0.15           U   9                  
Residuals in seconds of arc
240501 F52  0.0   0.2-    240502 V06  0.0   0.1-    240503 673  0.3-  0.4-
240501 F52  0.1-  0.1+    240502 V06  0.0   0.1+    240503 291  0.1-  0.6-
240501 F52  0.1+  0.1+    240502 V06  0.1+  0.1+    240503 291  0.1-  0.1-
240501 F51  0.0   0.1+    240502 V06  0.1-  0.0     240503 291  0.4-  0.6-
240501 F51  0.0   0.1-    240503 673  0.1-  0.3-
Ephemeris:
2024 JU                  a,e,i = 1.94, 0.41, 1                   q = 1.1365
Date    TT    R. A. (2000) Decl.     Delta      r    Elong.  Phase     V
2024 04 03    12 46 11.7 -02 48 17   0.1556  1.1553   177.4     2.2    22.2
...
2024 04 18    13 24 19.5 -08 22 54   0.1342  1.1377   174.5     4.9    22.1
...
2024 04 26    13 49 48.6 -11 54 41   0.1314  1.1369   173.8     5.5    22.0
...
2024 05 02    14 10 04.0 -14 30 51   0.1333  1.1403   173.4     5.8    22.1
2024 05 03    14 13 27.6 -14 55 46   0.1340  1.1412   173.3     5.9    22.1
2024 05 04    14 16 50.7 -15 20 15   0.1347  1.1422   173.2     6.0    22.1
...
2024 05 10    14 36 48.7 -17 36 23   0.1414  1.1501   172.5     6.6    22.3
...
2024 05 18    15 01 42.4 -20 04 22   0.1557  1.1655   171.0     7.8    22.6
...
2024 06 02    15 40 24.9 -22 59 02   0.1989  1.2082   166.1    11.6    23.3
M. P. C. Staff               (C) Copyright 2024 MPC           M.P.E.C. 2024-J49
    
    
More information about the Iaude
mailing list